When you browse on this site, cookies collect data to enhance your experience and personalize the content and advertising you see.
Visit our Privacy Policy to learn more. By continuing to use the site, you agree to this use of cookies and data.
  • In Hungary
  • List of Countries
  • For 7 days
  • Water Temperature
  • Weather Map
  • News
  • Weather Widgets
  • user-avatar
    Login

    Hourly Weather Polynovskiy

    Today, 14 October, Monday

    Time Temperature Precipitation Wind Pressure Humidity
    00:00 +15°C° 0 mm 2 mps 761 mmHg 49%
    01:00 +14°C° 0 mm 2 mps 761 mmHg 49%
    02:00 +14°C° 0 mm 1 mps 761 mmHg 50%
    03:00 +14°C° 0 mm 2 mps 761 mmHg 53%
    04:00 +14°C° 0 mm 2 mps 761 mmHg 54%
    05:00 +13°C° 0 mm 2 mps 761 mmHg 55%
    06:00 +13°C° 0 mm 2 mps 761 mmHg 57%
    07:00 +15°C° 0 mm 2 mps 761 mmHg 52%
    08:00 +16°C° 0 mm 2 mps 762 mmHg 48%
    09:00 +18°C° 0 mm 2 mps 762 mmHg 43%
    10:00 +20°C° 0 mm 1 mps 762 mmHg 39%
    11:00 +22°C° 0 mm 1 mps 762 mmHg 34%
    12:00 +23°C° 0 mm 1 mps 761 mmHg 30%
    13:00 +24°C° 0 mm 1 mps 761 mmHg 29%
    14:00 +24°C° 0 mm 1 mps 761 mmHg 27%
    15:00 +25°C° 0 mm 1 mps 761 mmHg 26%
    16:00 +23°C° 0 mm 1 mps 761 mmHg 30%
    17:00 +22°C° 0 mm 1 mps 761 mmHg 33%
    18:00 +19°C° 0 mm 2 mps 761 mmHg 37%
    19:00 +19°C° 0 mm 2 mps 761 mmHg 38%
    20:00 +18°C° 0 mm 2 mps 761 mmHg 40%
    21:00 +18°C° 0 mm 2 mps 761 mmHg 41%
    22:00 +17°C° 0 mm 2 mps 760 mmHg 42%
    23:00 +17°C° 0 mm 2 mps 760 mmHg 43%

    Tomorrow, 15 October, Tuesday

    Time Temperature Precipitation Wind Pressure Humidity
    00:00 +16°C° 0 mm 2 mps 760 mmHg 44%
    01:00 +16°C° 0 mm 2 mps 759 mmHg 45%
    02:00 +16°C° 0 mm 2 mps 759 mmHg 46%
    03:00 +15°C° 0 mm 2 mps 759 mmHg 47%
    04:00 +15°C° 0 mm 2 mps 758 mmHg 48%
    05:00 +14°C° 0 mm 2 mps 758 mmHg 49%
    06:00 +14°C° 0 mm 2 mps 758 mmHg 50%
    07:00 +16°C° 0 mm 2 mps 758 mmHg 46%
    08:00 +17°C° 0 mm 2 mps 758 mmHg 43%
    09:00 +19°C° 0 mm 2 mps 758 mmHg 39%
    10:00 +20°C° 0 mm 3 mps 758 mmHg 35%
    11:00 +22°C° 0 mm 3 mps 758 mmHg 31%
    12:00 +24°C° 0 mm 3 mps 758 mmHg 27%
    13:00 +25°C° 0 mm 3 mps 757 mmHg 27%
    14:00 +25°C° 0 mm 3 mps 757 mmHg 27%
    15:00 +26°C° 0 mm 3 mps 757 mmHg 28%
    16:00 +24°C° 0 mm 2 mps 757 mmHg 32%
    17:00 +21°C° 0 mm 2 mps 757 mmHg 36%
    18:00 +20°C° 0 mm 2 mps 757 mmHg 40%
    19:00 +19°C° 0 mm 2 mps 757 mmHg 43%
    20:00 +19°C° 0 mm 1 mps 757 mmHg 46%
    21:00 +19°C° 0 mm 1 mps 757 mmHg 48%
    22:00 +18°C° 0 mm 1 mps 757 mmHg 53%
    23:00 +18°C° 0 mm 1 mps 757 mmHg 57%

    Day after tomorrow, 16 October, Wednesday

    Time Temperature Precipitation Wind Pressure Humidity
    00:00 +16°C° 0 mm 1 mps 757 mmHg 61%
    01:00 +16°C° 0 mm 1 mps 757 mmHg 65%
    02:00 +15°C° 0 mm 1 mps 757 mmHg 68%
    03:00 +15°C° 0 mm 1 mps 757 mmHg 71%
    04:00 +13°C° 0 mm 0 mps 757 mmHg 74%
    05:00 +13°C° 0 mm 0 mps 757 mmHg 76%
    06:00 +13°C° 0 mm 0 mps 757 mmHg 78%
    07:00 +16°C° 0 mm 1 mps 757 mmHg 71%
    08:00 +19°C° 0 mm 1 mps 757 mmHg 64%
    09:00 +20°C° 0 mm 1 mps 758 mmHg 56%
    10:00 +21°C° 0 mm 2 mps 758 mmHg 49%
    11:00 +23°C° 0 mm 2 mps 757 mmHg 42%
    12:00 +25°C° 0 mm 3 mps 757 mmHg 34%
    13:00 +25°C° 0 mm 3 mps 757 mmHg 33%
    14:00 +26°C° 0 mm 4 mps 757 mmHg 32%
    15:00 +26°C° 0 mm 4 mps 757 mmHg 31%
    16:00 +23°C° 0 mm 4 mps 757 mmHg 35%
    17:00 +22°C° 0 mm 3 mps 757 mmHg 40%
    18:00 +20°C° 0 mm 3 mps 757 mmHg 45%
    19:00 +19°C° 0 mm 3 mps 757 mmHg 49%
    20:00 +18°C° 0 mm 3 mps 758 mmHg 52%
    21:00 +18°C° 0 mm 3 mps 758 mmHg 56%
    22:00 +17°C° 0 mm 3 mps 758 mmHg 62%
    23:00 +16°C° 0 mm 3 mps 758 mmHg 69%

    17 October, Thursday

    Time Temperature Precipitation Wind Pressure Humidity
    00:00 +16°C° 0 mm 3 mps 758 mmHg 75%
    01:00 +14°C° 0 mm 3 mps 758 mmHg 80%
    02:00 +14°C° 0 mm 3 mps 758 mmHg 85%
    03:00 +13°C° 0 mm 3 mps 758 mmHg 90%
    04:00 +13°C° 0 mm 4 mps 758 mmHg 92%
    05:00 +13°C° 0 mm 4 mps 758 mmHg 93%
    06:00 +12°C° 0 mm 4 mps 758 mmHg 95%
    07:00 +13°C° 0 mm 4 mps 758 mmHg 89%
    08:00 +14°C° 0 mm 5 mps 758 mmHg 83%
    09:00 +15°C° 0 mm 5 mps 758 mmHg 76%
    10:00 +17°C° 0 mm 5 mps 758 mmHg 68%
    11:00 +20°C° 0 mm 5 mps 758 mmHg 59%
    12:00 +21°C° 0 mm 5 mps 758 mmHg 50%
    13:00 +22°C° 0 mm 6 mps 758 mmHg 48%
    14:00 +22°C° 0 mm 6 mps 757 mmHg 46%
    15:00 +22°C° 0 mm 6 mps 757 mmHg 44%
    16:00 +21°C° 0 mm 6 mps 757 mmHg 49%
    17:00 +19°C° 0 mm 5 mps 757 mmHg 54%
    18:00 +17°C° 0 mm 5 mps 757 mmHg 59%
    19:00 +16°C° 0 mm 5 mps 757 mmHg 64%
    20:00 +15°C° 0 mm 4 mps 757 mmHg 70%
    21:00 +14°C° 0 mm 4 mps 757 mmHg 75%
    22:00 +13°C° 0 mm 4 mps 757 mmHg 79%
    23:00 +13°C° 0 mm 3 mps 756 mmHg 84%

    18 October, Friday

    Time Temperature Precipitation Wind Pressure Humidity
    00:00 +12°C° 0 mm 3 mps 756 mmHg 88%
    01:00 +12°C° 0 mm 3 mps 756 mmHg 90%
    02:00 +12°C° 0 mm 2 mps 756 mmHg 91%
    03:00 +12°C° 0 mm 2 mps 756 mmHg 93%
    04:00 +12°C° 0 mm 2 mps 756 mmHg 92%
    05:00 +11°C° 0 mm 1 mps 756 mmHg 92%
    06:00 +11°C° 0 mm 1 mps 756 mmHg 92%
    07:00 +13°C° 0 mm 1 mps 756 mmHg 85%
    08:00 +14°C° 0 mm 1 mps 756 mmHg 78%
    09:00 +16°C° 0 mm 1 mps 755 mmHg 70%
    10:00 +18°C° 0 mm 1 mps 755 mmHg 61%
    11:00 +19°C° 0 mm 2 mps 755 mmHg 52%
    12:00 +21°C° 0 mm 2 mps 755 mmHg 43%
    13:00 +23°C° 0 mm 2 mps 755 mmHg 40%
    14:00 +24°C° 0 mm 2 mps 754 mmHg 37%
    15:00 +24°C° 0 mm 2 mps 754 mmHg 34%
    16:00 +23°C° 0 mm 1 mps 754 mmHg 39%
    17:00 +21°C° 0 mm 1 mps 754 mmHg 43%
    18:00 +19°C° 0 mm 1 mps 754 mmHg 48%
    19:00 +19°C° 0 mm 1 mps 754 mmHg 49%
    20:00 +18°C° 0 mm 1 mps 754 mmHg 51%
    21:00 +18°C° 0 mm 1 mps 755 mmHg 52%
    22:00 +16°C° 0 mm 1 mps 754 mmHg 54%
    23:00 +16°C° 0 mm 1 mps 754 mmHg 57%

    19 October, Saturday

    Time Temperature Precipitation Wind Pressure Humidity
    00:00 +15°C° 0 mm 1 mps 754 mmHg 59%
    01:00 +15°C° 0 mm 1 mps 754 mmHg 62%
    02:00 +14°C° 0 mm 0 mps 754 mmHg 65%
    03:00 +13°C° 0 mm 0 mps 754 mmHg 68%
    04:00 +13°C° 0 mm 0 mps 755 mmHg 70%
    05:00 +13°C° 0 mm 0 mps 755 mmHg 72%
    06:00 +12°C° 0 mm 0 mps 756 mmHg 74%
    07:00 +14°C° 0 mm 0 mps 756 mmHg 66%
    08:00 +16°C° 0 mm 0 mps 756 mmHg 58%
    09:00 +20°C° 0 mm 1 mps 757 mmHg 50%
    10:00 +21°C° 0 mm 1 mps 757 mmHg 45%
    11:00 +23°C° 0 mm 2 mps 757 mmHg 41%
    12:00 +24°C° 0 mm 2 mps 757 mmHg 37%
    13:00 +24°C° 0 mm 3 mps 757 mmHg 35%
    14:00 +25°C° 0 mm 3 mps 757 mmHg 34%
    15:00 +25°C° 0 mm 4 mps 756 mmHg 32%
    16:00 +22°C° 0 mm 3 mps 757 mmHg 36%
    17:00 +21°C° 0 mm 3 mps 757 mmHg 40%
    18:00 +19°C° 0 mm 3 mps 757 mmHg 43%
    19:00 +18°C° 0 mm 4 mps 757 mmHg 51%
    20:00 +17°C° 0 mm 4 mps 757 mmHg 59%
    21:00 +15°C° 0 mm 4 mps 758 mmHg 66%
    22:00 +14°C° 0 mm 4 mps 758 mmHg 72%
    23:00 +14°C° 0 mm 4 mps 758 mmHg 79%
    Show more